DW0367 Weather Reports


Display with metric or nautical units.
time (UTC)temp
F
wind
direction
speed
MPH
gust
MPH
rain 1hr
in
rain 24hr
in
rain mn
in
humidity
%
barometer
mb
20260510204204 66 355 1.0 2.0 0.00 0.07 0.02 47 1019.9
20260510203704 66 355 0.0 1.0 0.00 0.07 0.02 55 1019.8
20260510202204 66 0 0.0 2.0 0.00 0.07 0.02 50 1019.7
20260510201204 66 0 1.0 2.0 0.00 0.07 0.02 46 1019.7
20260510200704 66 0 1.0 2.0 0.00 0.07 0.02 46 1019.8
20260510200204 66 355 0.0 2.0 0.00 0.07 0.02 49 1019.8
20260510195704 66 357 1.0 2.0 0.00 0.07 0.02 47 1019.7
20260510195204 66 0 0.0 2.0 0.00 0.07 0.02 49 1019.8
20260510194704 66 0 1.0 2.0 0.00 0.07 0.02 50 1019.8
20260510194203 65 351 1.0 2.0 0.00 0.07 0.02 48 1019.8
20260510193204 65 344 1.0 2.0 0.00 0.07 0.02 50 1019.8
20260510192203 64 347 0.0 1.0 0.00 0.07 0.02 53 1019.8
20260510191704 64 347 0.0 1.0 0.00 0.07 0.02 57 1019.9
20260510191203 64 347 0.0 0.0 0.00 0.07 0.02 53 1019.8
20260510190703 64 347 0.0 2.0 0.00 0.07 0.02 52 1019.8
20260510185704 65 347 1.0 2.0 0.00 0.07 0.02 55 1019.8
20260510185204 65 347 0.0 2.0 0.00 0.07 0.02 51 1019.8
20260510184704 64 347 1.0 2.0 0.00 0.07 0.02 51 1019.8
20260510184204 64 346 0.0 2.0 0.00 0.07 0.02 53 1019.7
20260510183703 64 348 1.0 2.0 0.00 0.07 0.02 56 1019.7
20260510182204 64 348 1.0 3.0 0.00 0.07 0.02 54 1019.5
20260510181704 64 348 1.0 3.0 0.00 0.07 0.02 53 1019.5
20260510181204 64 71 0.0 3.0 0.00 0.07 0.02 54 1019.4
20260510180204 64 83 1.0 3.0 0.00 0.07 0.02 54 1019.5
20260510175704 63 83 1.0 2.0 0.00 0.07 0.02 56 1019.5
20260510175204 63 49 1.0 2.0 0.00 0.07 0.02 58 1019.6
20260510174704 63 49 1.0 2.0 0.00 0.07 0.02 59 1019.6
20260510173203 63 49 1.0 3.0 0.00 0.07 0.02 61 1019.7
20260510172703 62 55 1.0 3.0 0.00 0.07 0.02 61 1019.9
20260510172204 62 144 1.0 3.0 0.00 0.07 0.02 62 1019.8
20260510171703 61 40 1.0 3.0 0.00 0.07 0.02 60 1019.8
20260510171204 61 117 1.0 2.0 0.00 0.07 0.02 64 1019.8
20260510170703 61 122 0.0 2.0 0.00 0.07 0.02 66 1019.8
20260510170204 61 122 0.0 1.0 0.00 0.07 0.02 66 1019.9
20260510165704 61 122 0.0 0.0 0.00 0.07 0.02 66 1019.9
20260510165204 61 122 0.0 0.0 0.00 0.07 0.02 64 1020.0
20260510164703 61 122 0.0 0.0 0.00 0.07 0.02 62 1019.9
20260510164204 61 122 0.0 2.0 0.00 0.07 0.02 63 1019.9
20260510163703 61 122 0.0 2.0 0.00 0.07 0.02 61 1019.8
20260510163203 61 122 0.0 2.0 0.00 0.07 0.02 64 1019.9
20260510162704 61 122 0.0 3.0 0.00 0.07 0.02 63 1020.0
20260510161204 60 5 1.0 2.0 0.00 0.07 0.02 64 1020.1
20260510160704 60 5 1.0 2.0 0.00 0.07 0.02 65 1020.0
20260510160204 60 5 1.0 2.0 0.00 0.07 0.02 66 1020.1
20260510155704 60 5 0.0 2.0 0.00 0.07 0.02 65 1020.1
20260510154704 59 5 0.0 1.0 0.00 0.07 0.02 67 1020.1
20260510154204 59 5 0.0 2.0 0.00 0.07 0.02 64 1020.0
20260510153704 59 5 0.0 2.0 0.00 0.07 0.02 62 1019.8
20260510153204 59 5 0.0 2.0 0.00 0.07 0.02 68 1019.7
20260510152704 59 5 0.0 2.0 0.00 0.07 0.02 68 1019.6
20260510152204 59 5 1.0 3.0 0.00 0.07 0.02 70 1019.5
20260510151704 58 5 1.0 3.0 0.00 0.07 0.02 72 1019.4
20260510151204 58 5 0.0 2.0 0.00 0.07 0.02 73 1019.3
20260510150703 57 5 0.0 2.0 0.00 0.07 0.02 77 1019.3
20260510150204 57 5 0.0 1.0 0.00 0.07 0.02 76 1019.2
20260510145704 57 5 0.0 1.0 0.00 0.07 0.02 77 1019.2
20260510145204 57 5 0.0 1.0 0.00 0.07 0.02 79 1019.1
20260510144704 57 5 0.0 2.0 0.00 0.07 0.02 79 1019.2
20260510144204 57 5 0.0 2.0 0.00 0.07 0.02 77 1019.2
20260510143704 57 5 0.0 2.0 0.00 0.07 0.02 80 1019.1
20260510143204 57 5 0.0 2.0 0.00 0.07 0.02 78 1018.9
20260510142704 56 5 0.0 2.0 0.00 0.07 0.02 80 1018.7
20260510141703 56 9 0.0 1.0 0.00 0.07 0.02 86 1018.5
20260510141203 55 9 0.0 2.0 0.00 0.07 0.02 84 1018.3
20260510140704 55 9 1.0 2.0 0.00 0.07 0.02 85 1018.1
20260510140204 55 9 0.0 2.0 0.00 0.07 0.02 86 1018.2
20260510135703 55 9 0.0 2.0 0.00 0.07 0.02 87 1018.3
20260510135205 55 9 0.0 2.0 0.00 0.07 0.02 87 1018.4
20260510134704 54 9 0.0 1.0 0.00 0.07 0.02 87 1018.5
20260510133203 54 9 0.0 1.0 0.00 0.07 0.02 89 1018.3
20260510132704 54 9 0.0 2.0 0.00 0.07 0.02 89 1018.3
20260510132204 54 9 0.0 2.0 0.00 0.07 0.02 89 1018.3
20260510131704 54 9 1.0 2.0 0.00 0.07 0.02 90 1018.4
20260510131203 53 9 0.0 2.0 0.00 0.07 0.02 90 1018.3
20260510130703 53 9 0.0 2.0 0.00 0.07 0.02 91 1018.3
20260510130204 53 9 0.0 1.0 0.00 0.07 0.02 91 1018.2
20260510125704 53 9 0.0 1.0 0.00 0.07 0.02 91 1018.1
20260510125204 53 9 0.0 2.0 0.00 0.07 0.02 92 1018.0
20260510124704 53 9 0.0 2.0 0.00 0.07 0.02 92 1018.0
20260510124204 53 9 0.0 1.0 0.00 0.07 0.02 92 1017.8
20260510123204 53 9 0.0 1.0 0.00 0.07 0.02 93 1017.5
20260510122703 53 9 0.0 1.0 0.00 0.07 0.02 93 1017.6
20260510122204 53 9 0.0 1.0 0.00 0.07 0.02 93 1017.5
20260510121704 53 9 0.0 1.0 0.00 0.07 0.02 93 1017.4
20260510121204 53 9 0.0 1.0 0.00 0.07 0.02 93 1017.3
20260510120704 53 9 0.0 0.0 0.00 0.07 0.02 93 1017.4
20260510120203 53 9 0.0 0.0 0.00 0.07 0.02 93 1017.4
20260510115203 53 9 0.0 1.0 0.00 0.07 0.02 93 1017.2
20260510114704 54 9 0.0 1.0 0.00 0.07 0.02 93 1017.0
20260510114203 54 9 0.0 1.0 0.00 0.07 0.02 93 1016.8
20260510113703 54 9 0.0 0.0 0.00 0.07 0.02 93 1016.7
20260510113204 55 9 0.0 1.0 0.00 0.07 0.02 93 1016.6
20260510112704 55 9 0.0 1.0 0.00 0.07 0.02 94 1016.4
20260510112204 55 9 0.0 1.0 0.00 0.07 0.02 94 1016.2
20260510111704 55 9 0.0 0.0 0.00 0.07 0.02 93 1016.2
20260510110704 55 9 0.0 0.0 0.00 0.07 0.02 94 1016.0
20260510110203 55 9 0.0 0.0 0.00 0.07 0.02 94 1015.9
20260510105703 55 9 0.0 1.0 0.00 0.07 0.02 94 1015.7
20260510105204 55 9 0.0 1.0 0.00 0.07 0.02 94 1015.6
20260510104704 55 9 0.0 1.0 0.00 0.07 0.02 94 1015.6
20260510104204 56 9 0.0 1.0 0.00 0.07 0.02 94 1015.5
20260510103704 56 9 0.0 1.0 0.00 0.07 0.02 94 1015.4
20260510103203 56 9 0.0 0.0 0.00 0.07 0.02 94 1015.2
20260510102704 56 9 0.0 1.0 0.00 0.07 0.02 93 1015.2
20260510102204 56 9 0.0 1.0 0.00 0.07 0.02 94 1015.2
20260510101704 56 9 0.0 1.0 0.00 0.07 0.02 94 1015.1
20260510101204 56 9 0.0 0.0 0.00 0.07 0.02 94 1015.1
20260510100703 56 9 0.0 0.0 0.00 0.07 0.02 94 1015.1
20260510100204 57 9 0.0 0.0 0.00 0.07 0.02 94 1015.0
20260510095704 57 9 0.0 1.0 0.00 0.07 0.02 94 1014.9
20260510095203 57 9 0.0 1.0 0.00 0.07 0.02 94 1014.7
20260510094704 57 9 0.0 1.0 0.00 0.07 0.02 94 1014.7
20260510094204 57 9 0.0 1.0 0.00 0.07 0.02 94 1014.7
20260510093704 57 9 0.0 0.0 0.00 0.07 0.02 94 1014.7
20260510093204 57 9 0.0 0.0 0.00 0.07 0.02 94 1014.8
20260510092204 57 9 0.0 1.0 0.00 0.07 0.02 94 1014.9
20260510091703 57 9 0.0 1.0 0.00 0.07 0.02 93 1014.8
20260510091204 57 9 0.0 0.0 0.00 0.07 0.02 93 1014.7
20260510090703 57 9 0.0 1.0 0.00 0.07 0.02 94 1014.5
20260510090205 57 9 0.0 1.0 0.00 0.07 0.02 94 1014.4
20260510085705 58 9 0.0 1.0 0.00 0.07 0.02 93 1014.3
20260510085203 58 9 0.0 1.0 0.00 0.07 0.02 93 1014.1
20260510084704 58 9 0.0 1.0 0.00 0.07 0.02 93 1014.1
20260510084204 58 9 0.0 1.0 0.00 0.07 0.02 93 1013.9
20260510083703 58 9 1.0 1.0 0.00 0.07 0.02 93 1013.9
20260510083204 58 9 0.0 1.0 0.00 0.07 0.02 93 1013.9
20260510082704 58 9 0.0 0.0 0.00 0.07 0.02 93 1013.8
20260510082204 58 9 0.0 0.0 0.00 0.07 0.02 93 1013.7
20260510081704 58 9 0.0 0.0 0.00 0.07 0.02 93 1013.6
20260510080704 58 9 0.0 0.0 0.00 0.07 0.02 93 1013.4
20260510080204 58 9 0.0 0.0 0.00 0.07 0.02 93 1013.3
20260510075704 58 9 0.0 0.0 0.00 0.07 0.02 93 1013.2
20260510075204 58 9 0.0 0.0 0.00 0.07 0.02 93 1013.0
20260510074703 59 9 0.0 0.0 0.00 0.07 0.02 93 1013.1
20260510074204 59 9 0.0 0.0 0.00 0.07 0.02 93 1013.1
20260510073704 59 9 0.0 0.0 0.00 0.07 0.02 93 1013.1
20260510073204 59 9 0.0 1.0 0.00 0.07 0.02 93 1013.1
20260510072704 59 9 0.0 1.0 0.00 0.07 0.02 93 1013.0
20260510072204 59 9 0.0 0.0 0.00 0.07 0.02 92 1013.1
20260510071703 59 9 0.0 0.0 0.00 0.07 0.02 92 1013.1
20260510071204 59 9 0.0 0.0 0.00 0.07 0.02 92 1012.8
20260510070704 59 9 0.0 0.0 0.00 0.07 0.02 92 1012.6
20260510070203 60 9 0.0 0.0 0.00 0.07 0.02 92 1012.6
20260510065704 60 9 0.0 0.0 0.00 0.07 0.02 92 1012.6
20260510065204 60 9 0.0 0.0 0.00 0.07 0.02 92 1012.7
20260510064704 60 9 0.0 1.0 0.00 0.07 0.02 92 1012.8
20260510064204 60 9 0.0 1.0 0.00 0.07 0.02 92 1012.7
20260510063705 60 9 0.0 1.0 0.00 0.07 0.02 92 1012.7
20260510063204 60 9 0.0 2.0 0.00 0.07 0.02 92 1012.8
20260510062703 60 9 0.0 2.0 0.01 0.07 0.02 92 1012.8
20260510062203 60 9 1.0 2.0 0.01 0.07 0.02 92 1012.8
20260510061703 60 9 1.0 2.0 0.02 0.07 0.02 92 1012.8
20260510061204 60 9 0.0 1.0 0.02 0.07 0.02 92 1012.8
20260510060204 60 9 0.0 1.0 0.02 0.07 0.02 92 1012.6
20260510055204 60 9 1.0 3.0 0.02 0.07 0.02 92 1012.6
20260510054703 60 9 1.0 3.0 0.04 0.07 0.02 91 1011.9
20260510053704 61 9 1.0 3.0 0.00 0.07 0.02 91 1011.7
20260510053204 61 257 0.0 3.0 0.00 0.07 0.02 91 1011.4
20260510052704 61 257 0.0 3.0 0.00 0.06 0.01 90 1011.6
20260510052204 61 331 1.0 3.0 0.00 0.06 0.01 92 1012.1
20260510051203 61 41 0.0 1.0 0.00 0.05 0.00 91 1011.9
20260510050203 61 41 1.0 1.0 0.00 0.05 0.00 91 1011.8
20260510045704 61 40 0.0 2.0 0.05 0.05 0.05 90 1012.1
20260510045204 61 40 0.0 2.0 0.05 0.05 0.05 90 1012.1
20260510044705 61 40 1.0 2.0 0.04 0.04 0.04 89 1012.4
20260510043704 62 42 0.0 2.0 0.02 0.02 0.02 89 1012.4
20260510043204 62 42 1.0 2.0 0.02 0.02 0.02 88 1012.5
20260510042704 62 42 0.0 2.0 0.01 0.02 0.01 88 1012.8
20260510042204 62 42 0.0 2.0 0.01 0.02 0.01 87 1012.6
20260510041704 62 42 1.0 2.0 0.01 0.02 0.01 87 1012.5
20260510041204 62 42 0.0 1.0 0.00 0.01 0.00 86 1012.0
20260510040204 63 42 1.0 3.0 0.00 0.01 0.00 85 1012.1
20260510035704 63 42 0.0 3.0 0.00 0.01 0.00 85 1011.8
20260510035204 64 5 1.0 3.0 0.00 0.01 0.00 84 1012.0
20260510033704 65 5 1.0 3.0 0.00 0.02 0.00 81 1012.3
20260510033204 66 5 1.0 3.0 0.00 0.02 0.00 79 1012.3
20260510032704 66 0 1.0 3.0 0.00 0.04 0.00 78 1012.2
20260510032204 67 0 1.0 3.0 0.00 0.05 0.00 76 1012.2
20260510031704 67 0 2.0 8.0 0.00 0.07 0.00 72 1012.1
20260510031204 67 355 2.0 8.0 0.00 0.07 0.00 71 1011.8
20260510030703 67 246 1.0 3.0 0.00 0.09 0.00 70 1010.6
20260510030203 67 245 0.0 1.0 0.00 0.10 0.00 69 1010.1
20260510025704 67 245 0.0 1.0 0.00 0.11 0.00 71 1010.0
20260510025204 67 245 0.0 0.0 0.00 0.12 0.00 68 1009.9
20260510024704 67 245 0.0 0.0 0.00 0.15 0.00 69 1009.7
20260510023704 68 245 0.0 0.0 0.00 0.18 0.00 69 1009.6
20260510023204 68 245 0.0 0.0 0.00 0.20 0.00 68 1009.6
20260510022704 68 245 0.0 0.0 0.00 0.22 0.00 69 1009.6
20260510022204 68 245 0.0 0.0 0.00 0.23 0.00 68 1009.5
20260510020704 69 245 0.0 0.0 0.00 0.30 0.00 66 1009.4
20260510015204 69 245 0.0 0.0 0.00 0.31 0.00 63 1008.9
20260510014204 70 245 0.0 0.0 0.00 0.31 0.00 62 1008.8
20260510013704 70 245 0.0 0.0 0.00 0.31 0.00 61 1008.8
20260510013203 71 245 0.0 0.0 0.00 0.31 0.00 61 1008.7
20260510011204 72 245 0.0 0.0 0.00 0.31 0.00 57 1008.8
20260510010704 72 245 0.0 0.0 0.00 0.31 0.00 56 1008.7
20260510010204 72 245 0.0 0.0 0.00 0.31 0.00 56 1008.7
20260510005704 73 245 0.0 0.0 0.00 0.31 0.00 56 1008.6
20260510005204 73 245 0.0 0.0 0.00 0.31 0.00 55 1008.6
20260510004204 73 245 0.0 0.0 0.00 0.32 0.00 55 1008.4
20260510003704 74 245 0.0 0.0 0.00 0.32 0.00 55 1008.3
20260510003204 74 245 0.0 0.0 0.00 0.33 0.00 53 1008.3
20260510002703 74 245 0.0 0.0 0.00 0.33 0.00 54 1008.3
20260510002204 75 245 0.0 0.0 0.00 0.34 0.00 51 1008.3
20260510001704 75 245 0.0 0.0 0.00 0.36 0.00 53 1008.3
20260510001204 75 245 0.0 0.0 0.00 0.36 0.00 50 1008.3
20260510000703 76 245 0.0 0.0 0.00 0.36 0.00 51 1008.2
20260510000204 76 245 0.0 1.0 0.00 0.36 0.00 51 1008.2
20260509235704 76 245 0.0 1.0 0.00 0.36 0.00 50 1008.2
20260509235203 77 245 0.0 1.0 0.00 0.36 0.00 50 1008.2
20260509234705 77 245 0.0 1.0 0.00 0.36 0.00 49 1008.1
20260509234204 77 245 0.0 1.0 0.00 0.36 0.00 49 1008.2
20260509233703 77 245 0.0 1.0 0.00 0.36 0.00 48 1008.1
20260509233204 78 245 0.0 1.0 0.00 0.36 0.00 47 1008.2
20260509232703 78 245 0.0 1.0 0.00 0.36 0.00 48 1008.1
20260509232204 78 245 0.0 2.0 0.00 0.36 0.00 44 1008.1
20260509231704 78 245 1.0 2.0 0.00 0.36 0.00 45 1008.1
20260509231204 78 245 1.0 1.0 0.00 0.36 0.00 46 1008.1
20260509230704 78 245 0.0 2.0 0.00 0.36 0.00 45 1008.1
20260509230204 78 245 1.0 2.0 0.00 0.36 0.00 44 1008.2
20260509225704 78 245 1.0 2.0 0.00 0.36 0.00 44 1008.2
20260509225204 78 245 1.0 2.0 0.00 0.36 0.00 45 1008.1
20260509224704 78 245 1.0 2.0 0.00 0.36 0.00 46 1008.1
20260509224204 78 245 1.0 2.0 0.00 0.36 0.00 46 1008.0
20260509223204 78 245 1.0 3.0 0.00 0.36 0.00 45 1008.1
20260509222704 78 245 2.0 3.0 0.00 0.36 0.00 46 1008.1
20260509222204 78 245 1.0 2.0 0.00 0.36 0.00 47 1008.1
20260509221204 78 245 1.0 3.0 0.00 0.36 0.00 47 1008.1
20260509220703 78 245 1.0 3.0 0.00 0.36 0.00 49 1008.2
20260509220204 78 245 1.0 3.0 0.00 0.36 0.00 46 1008.1
20260509215704 78 248 1.0 3.0 0.00 0.36 0.00 48 1008.1
20260509215204 78 246 1.0 3.0 0.00 0.36 0.00 49 1008.1
20260509214203 78 246 1.0 3.0 0.00 0.36 0.00 48 1008.1
20260509213703 78 244 1.0 3.0 0.00 0.36 0.00 50 1008.2
20260509213204 78 244 2.0 3.0 0.00 0.36 0.00 49 1008.1
20260509212703 78 270 2.0 3.0 0.00 0.36 0.00 50 1008.2
20260509212204 78 267 1.0 3.0 0.00 0.36 0.00 49 1008.2
20260509211704 78 267 1.0 3.0 0.00 0.36 0.00 52 1008.2
20260509211204 78 267 2.0 3.0 0.00 0.36 0.00 51 1008.3
20260509210704 78 266 2.0 3.0 0.00 0.36 0.00 51 1008.4
20260509210203 78 266 1.0 2.0 0.00 0.36 0.00 51 1008.4
20260509205704 78 263 1.0 2.0 0.00 0.36 0.00 52 1008.5
20260509204704 78 263 1.0 3.0 0.00 0.36 0.00 50 1008.5